Tracking 28522 objects as of 28-Feb-2024
HD Live streaming from Space Station
objects crossing your sky now

GALILEO 22 (2C8)

Track GALILEO 22 (2C8) now!
GALILEO 22 (2C8) is classified as:


NORAD ID: 43058
Int'l Code: 2017-079D
Perigee: 23,223.1 km
Apogee: 23,235.5 km
Inclination: 55.4 °
Period: 844.7 minutes
Semi major axis: 29600 km
RCS: Unknown
Launch date: December 12, 2017
Source: European Space Agency (ESA)
Launch site: FRENCH GUIANA (FRGUI)
Your satellite tracking list
Your tracking list is empty




NASA's NSSDC Master Catalog

Two Line Element Set (TLE):
1 43058U 17079D   24058.00194065  .00000048  00000-0  00000-0 0  9990
2 43058  55.3947 244.6541 0002092 311.5827  48.3866  1.70474415 38673
Source of the keplerian elements: AFSPC